Startseite
Über Mich
AHP4
Galerie
Sehschlangen
Tourenbuch
Bookmarks
Elektronik
Bewertung
Geschichten
[Tagesmessung] [Jahreswerte] [Information]

Messwerte vom 23.02.2022

Die letzten Messwerte von 23:58:46 Uhr:
KategorieMesswert
Temperatur [°C]5
Luftdruck [mBar]1003
Sonneneinstrahlung0
Wind [km/h]0 aus Süd
Niederschlag [l/m²]0
rel.Luftfeucht.76%
CO2 [ppm]550

Diagramme
Messwerte vom 23.02.2022
Tagesaggregation
KategorieMinimumMaximumSchnittSumme
Temperatur [°C]3136.3167
Luftdruck [mBar]99810091004.5583
Sonneneinstrahlung24691.4521
Wind [km/h]0
rF [%]55.796.682.07
Niederschlag [l/m²]0
CO2 [ppm]401743453.1
Einordnung alsVegetationstag

Messungen an benachbarten Tagen: Zur Jahresaggregation 2022
Tabelle aller Messwerte
UhrzeitTemperatur [°C]Luftdruck [mBar]SonneWind [km/h]RichtungRegen [l/m²]rF [%]CO2 [ppm]
00:01:48 5 998 0 0 O 0 96.6 407
00:04:45 5 998 0 0 SW 0 96.6 406
00:07:48 5 998 0 0 SW 0 96.6 404
00:10:49 5 998 0 0 SW 0 96.6 407
00:13:48 5 998 0 0 SW 0 96.6 407
00:16:45 5 998 0 0 NW 0 96.6 407
00:19:48 5 999 0 0 S 0 96.6 404
00:22:47 5 998 0 0 S 0 96.6 404
00:25:46 5 998 0 0 SW 0 96.6 407
00:28:45 5 998 0 0 W 0 96.6 402
00:31:46 5 998 0 0 W 0 96.6 404
00:34:46 5 998 0 0 O 0 96.6 407
00:37:45 5 998 0 0 S 0 96.6 406
00:40:49 5 998 0 0 NO 0 96.6 407
00:43:47 5 998 0 0 SW 0 96.6 406
00:46:46 5 998 0 0 S 0 96.6 406
00:49:46 5 998 0 0 W 0 96.6 404
00:52:46 4 999 0 0 W 0 96.6 406
00:55:46 4 998 0 0 W 0 96.6 406
00:58:48 4 999 0 0 N 0 96.6 404
01:01:46 4 998 0 0 W 0 96.6 404
01:04:47 4 999 0 0 NW 0 96.6 406
01:07:46 4 998 0 0 SW 0 96.6 404
01:10:48 4 998 0 0 SW 0 96.6 407
01:13:48 4 998 0 0 SW 0 96.6 406
01:16:46 4 999 0 0 S 0 96.6 407
01:19:48 4 998 0 0 W 0 96.6 406
01:22:46 4 999 0 0 W 0 96.6 404
01:25:46 4 999 0 0 W 0 96.6 403
01:28:45 4 999 0 0 S 0 96.6 404
01:31:45 4 999 0 0 W 0 96.6 406
01:34:48 4 999 0 0 SW 0 96.6 403
01:37:48 4 999 0 0 SW 0 96.6 404
01:40:47 4 999 0 0 SW 0 96.6 404
01:43:46 5 999 0 0 O 0 96.6 403
01:46:46 5 999 0 0 NW 0 96.6 406
01:49:47 5 999 0 0 SW 0 96.6 407
01:52:45 5 999 0 0 W 0 96.6 407
01:55:46 5 999 0 0 S 0 96.6 407
01:58:45 5 999 0 0 W 0 96.6 407
02:01:48 5 999 0 0 SW 0 96.6 407
02:04:50 5 999 0 0 NW 0 96.6 406
02:07:47 5 999 0 0 W 0 96.6 404
02:10:46 5 1000 0 0 S 0 96.6 404
02:13:47 5 1000 0 0 S 0 96.6 407
02:16:48 5 1000 0 0 SW 0 96.6 406
02:19:47 5 1000 0 0 SW 0 96.6 404
02:22:47 5 1000 0 0 SW 0 96.6 407
02:25:48 5 999 0 0 NW 0 96.6 407
02:28:47 5 1000 0 0 W 0 96.6 404
02:31:48 5 1001 0 0 SW 0 96.6 407
02:34:46 5 1000 0 0 SW 0 96.6 407
02:37:47 5 1000 0 0 W 0 96.6 404
02:40:49 5 1001 0 0 S 0 96.6 404
02:43:50 5 1000 0 0 NW 0 96.6 405
02:46:47 5 1001 0 0 SW 0 96.6 404
02:49:48 5 1001 0 0 SW 0 96.6 407
02:52:46 5 1001 0 0 SW 0 96.6 407
02:55:46 5 1001 0 0 W 0 96.6 406
02:58:48 5 1000 0 0 W 0 96.6 401
03:01:45 5 1001 0 0 W 0 96.6 407
03:04:48 5 1001 0 0 SW 0 96.6 404
03:07:48 5 1001 0 0 NW 0 96.6 404
03:10:47 5 1001 0 0 NW 0 96.6 407
03:13:47 5 1002 0 0 S 0 96.6 407
03:17:13 5 1001 0 0 O 0 96.6 407
03:19:44 5 1002 0 0 W 0 96.6 407
03:22:47 5 1002 0 0 SW 0 96.6 406
03:25:46 5 1001 0 0 NW 0 96.6 407
03:28:50 5 1002 0 0 SW 0 96.6 405
03:31:48 5 1002 0 0 SW 0 96.6 404
03:34:46 5 1001 0 0 SW 0 96.6 406
03:37:48 5 1002 0 0 SO 0 96.6 404
03:40:47 5 1002 0 0 SW 0 96.6 404
03:43:47 5 1002 0 0 W 0 96.6 404
03:46:48 5 1002 0 0 SO 0 96.6 404
03:49:45 5 1001 0 0 O 0 96.6 404
03:52:45 5 1002 0 0 W 0 96.6 406
03:55:48 5 1002 0 0 W 0 96.6 404
03:58:49 5 1002 0 0 NW 0 96.6 407
04:01:48 5 1002 0 0 SW 0 96.6 406
04:04:46 5 1002 0 0 W 0 96.6 404
04:07:49 5 1002 0 0 SW 0 96.6 407
04:10:46 5 1002 0 0 S 0 96.6 407
04:13:47 5 1002 0 0 W 0 96.6 404
04:16:47 5 1002 0 0 S 0 96.6 404
04:19:49 5 1002 0 0 S 0 96.6 407
04:22:47 5 1002 0 0 W 0 96.6 407
04:25:45 5 1002 0 0 W 0 96.6 404
04:28:47 5 1002 0 0 S 0 96.6 407
04:31:48 5 1002 0 0 SO 0 96.6 405
04:34:48 5 1002 0 0 W 0 96.6 407
04:37:47 5 1002 0 0 SW 0 96.6 407
04:40:47 5 1002 0 0 W 0 96.6 407
04:43:45 5 1002 0 0 S 0 96.6 407
04:46:47 5 1002 0 0 W 0 96.6 406
04:49:47 5 1002 0 0 W 0 96.6 407
04:52:47 5 1002 0 0 W 0 96.6 407
04:55:46 5 1003 0 0 O 0 96.6 404
04:58:48 5 1002 0 0 NW 0 96.6 407
05:01:47 5 1002 0 0 S 0 96.6 407
05:04:48 5 1002 0 0 SW 0 96.6 404
05:07:46 5 1002 0 0 SW 0 96.6 404
05:10:48 5 1003 0 0 SW 0 96.6 407
05:13:47 5 1002 0 0 W 0 96.6 407
05:16:47 5 1003 0 0 SW 0 96.6 404
05:19:48 5 1002 0 0 SW 0 96.6 406
05:22:46 5 1003 0 0 S 0 96.6 406
05:25:47 5 1004 0 0 SW 0 96.6 407
05:28:45 5 1003 0 0 SW 0 96.6 404
05:31:46 5 1003 0 0 W 0 96.6 404
05:34:51 5 1003 0 0 SW 0 96.6 407
05:37:51 5 1003 0 0 NW 0 96.6 403
05:40:46 5 1003 0 0 S 0 96.5 403
05:43:47 5 1003 0 0 S 0 96.4 406
05:46:47 5 1004 0 0 W 0 96.3 407
05:49:47 5 1003 0 0 W 0 96.1 403
05:52:46 5 1004 0 0 W 0 95.9 404
05:55:46 5 1004 0 0 SW 0 95.6 404
05:58:46 5 1004 0 0 SW 0 95.5 404
06:01:48 5 1003 0 0 W 0 95.5 406
06:04:45 5 1004 0 0 W 0 95.5 406
06:07:46 5 1004 0 0 S 0 95.6 404
06:10:48 5 1004 0 0 W 0 95.6 404
06:13:46 5 1004 0 0 SW 0 95.6 405
06:16:45 5 1004 0 0 NW 0 95.6 407
06:19:46 5 1004 0 0 SW 0 95.6 407
06:22:46 5 1004 0 0 S 0 95.6 406
06:25:46 5 1005 0 0 W 0 95.5 406
06:28:45 5 1004 0 0 N 0 95.3 404
06:31:47 5 1004 0 0 SW 0 94.9 406
06:34:46 5 1005 0 0 S 0 94.8 404
06:37:45 5 1004 0 0 SW 0 94.8 407
06:40:47 5 1005 0 0 SW 0 95 404
06:43:48 5 1004 0 0 W 0 95.1 407
06:46:46 5 1005 0 0 SO 0 95 404
06:49:47 5 1005 0 0 O 0 95 404
06:52:47 5 1005 4 0 SW 0 94.9 404
06:55:48 5 1005 7 0 SW 0 94.9 406
06:58:47 5 1005 11 0 W 0 94.9 404
07:01:49 4 1005 16 0 SW 0 95 401
07:04:45 4 1006 24 0 W 0 95.1 404
07:07:49 4 1006 34 0 W 0 95.3 407
07:10:46 4 1005 48 0 S 0 95.5 404
07:13:48 4 1005 62 0 W 0 95.6 404
07:16:47 4 1006 73 0 SW 0 95.8 404
07:19:47 4 1005 75 0 SW 0 95.9 403
07:22:46 4 1005 83 0 SO 0 95.9 407
07:25:49 4 1006 96 0 NW 0 96.1 407
07:28:47 4 1006 102 0 SW 0 96.2 407
07:31:48 4 1006 109 0 SW 0 96.2 407
07:34:47 4 1006 114 0 SO 0 96.2 406
07:37:47 4 1006 120 0 W 0 96.3 404
07:40:50 4 1006 127 0 SW 0 96.3 407
07:43:48 4 1006 138 0 SW 0 96.2 404
07:46:49 4 1006 147 0 SW 0 96 407
07:49:49 4 1006 149 0 SW 0 95.9 407
07:52:47 5 1006 150 0 SW 0 95.7 406
07:55:52 5 1006 151 0 SW 0 95.6 407
07:58:47 5 1006 151 0 W 0 95.6 408
08:01:49 5 1006 148 0 S 0 95.5 407
08:04:46 5 1006 149 0 S 0 95.3 407
08:07:49 5 1006 151 0 NW 0 95.2 407
08:10:50 5 1006 159 0 SW 0 94.9 406
08:13:49 5 1006 168 0 SW 0 94.8 407
08:16:47 5 1006 172 0 SW 0 94.5 406
08:19:47 5 1006 178 0 SW 0 94.5 406
08:22:47 5 1006 180 0 W 0 94.3 403
08:25:47 5 1006 181 0 SO 0 94.1 407
08:28:48 5 1006 183 0 W 0 94 406
08:31:48 5 1006 185 0 SW 0 93.8 404
08:34:51 5 1006 188 0 NW 0 93.6 407
08:37:49 5 1006 188 0 SW 0 93.6 408
08:40:46 5 1006 191 0 W 0 93.4 407
08:43:48 5 1006 191 0 W 0 93.3 401
08:46:48 5 1006 193 0 W 0 93.1 407
08:49:49 5 1006 199 0 W 0 92.8 407
08:52:46 5 1007 190 0 N 0 92.8 404
08:55:49 5 1006 191 0 SW 0 92.4 407
08:58:48 5 1006 199 0 NO 0 91.9 406
09:01:49 5 1006 202 0 W 0 92 406
09:04:46 5 1006 193 0 SW 0 91.7 409
09:07:48 5 1006 198 0 SW 0 91.5 403
09:10:49 5 1006 199 0 W 0 91.8 406
09:13:48 6 1007 202 0 S 0 92 406
09:16:47 6 1006 201 0 O 0 91.6 405
09:19:48 6 1006 201 0 W 0 91.3 407
09:22:47 6 1006 205 0 W 0 91 406
09:25:49 6 1006 205 0 S 0 90.8 406
09:28:49 6 1006 207 0 SW 0 90.6 404
09:31:49 6 1006 208 0 SO 0 90.2 406
09:34:50 6 1006 208 0 N 0 90 404
09:37:49 6 1007 206 0 SW 0 89.1 407
09:40:48 6 1006 213 0 N 0 88.9 403
09:43:48 6 1006 210 0 SO 0 89.4 404
09:46:49 6 1006 207 0 SW 0 88.8 404
09:49:50 6 1007 203 0 SW 0 87.9 401
09:52:51 6 1006 205 0 NW 0 88.3 404
09:55:48 6 1006 213 0 S 0 88.9 405
09:58:49 6 1007 213 0 SW 0 89.2 404
10:01:51 6 1007 215 0 SW 0 88.3 407
10:04:48 6 1006 207 0 W 0 88.1 407
10:07:47 6 1007 215 0 SW 0 88.3 407
10:10:47 6 1007 214 0 W 0 88 404
10:13:49 7 1006 212 0 NW 0 87.2 404
10:16:48 7 1007 213 0 W 0 87.1 406
10:19:47 7 1006 214 0 S 0 87.1 404
10:22:50 7 1007 210 0 SW 0 86.3 406
10:25:48 7 1006 215 0 NO 0 86 404
10:28:47 7 1006 219 0 W 0 85.7 403
10:31:47 7 1007 215 0 W 0 84.8 406
10:34:47 7 1007 216 0 W 0 85 406
10:37:49 7 1007 219 0 SW 0 85 404
10:40:48 7 1007 220 0 SW 0 85 411
10:43:47 7 1007 217 0 SW 0 84.5 410
10:46:45 7 1007 217 0 W 0 84.7 407
10:49:49 7 1007 217 0 W 0 84.3 418
10:52:46 7 1007 217 0 N 0 84.3 413
10:55:46 7 1008 217 0 SW 0 83.2 415
10:58:47 8 1007 220 0 SW 0 83 415
11:01:47 8 1007 221 0 S 0 82.7 422
11:04:47 8 1007 220 0 SW 0 81.7 415
11:07:49 8 1007 222 0 S 0 80.2 407
11:10:47 8 1007 220 0 S 0 79.9 406
11:13:49 8 1007 216 0 W 0 80.1 407
11:16:47 8 1006 216 0 S 0 79.7 404
11:19:48 8 1007 212 0 SO 0 79.4 407
11:22:47 8 1007 208 0 S 0 78.5 401
11:25:48 8 1007 215 0 SW 0 77.1 407
11:28:46 8 1007 213 0 W 0 79.1 416
11:31:48 8 1008 218 0 SW 0 80.5 419
11:34:47 8 1007 215 0 W 0 82 427
11:37:49 8 1008 216 0 SW 0 81.3 421
11:40:47 8 1008 213 0 SW 0 80 421
11:43:48 9 1007 215 0 W 0 77.5 419
11:46:47 9 1007 220 0 S 0 77 418
11:49:46 9 1009 213 0 N 0 76.7 410
11:52:48 9 1007 219 0 W 0 74.4 415
11:55:46 10 1008 220 0 O 0 74.3 416
11:58:47 10 1008 213 0 S 0 74.2 416
12:01:45 10 1008 213 0 W 0 73.5 415
12:04:50 11 1008 213 0 SW 0 69.4 413
12:07:50 11 1008 219 0 SW 0 69.5 407
12:10:49 11 1008 216 0 SW 0 69.8 410
12:13:49 11 1009 224 0 SO 0 70.2 416
12:16:47 11 1008 214 0 SW 0 69.4 413
12:19:52 11 1008 211 0 NW 0 65.5 410
12:22:49 10 1008 213 0 SO 0 66.7 404
12:25:48 10 1008 214 0 SW 0 68.5 407
12:28:47 10 1009 218 0 W 0 69.9 413
12:31:45 10 1007 217 0 W 0 70.3 418
12:34:47 10 1008 215 0 W 0 70.3 421
12:37:49 10 1008 221 0 SW 0 69.9 409
12:40:48 11 1008 225 0 W 0 68.1 410
12:43:48 11 1008 223 0 W 0 68.2 413
12:46:49 12 1008 222 0 SW 0 66.8 419
12:49:48 12 1008 225 0 S 0 64.1 421
12:52:48 12 1007 225 0 W 0 63.2 413
12:55:51 12 1008 225 0 W 0 62.5 416
12:58:47 12 1007 224 0 W 0 62.3 413
13:01:48 12 1007 225 0 W 0 60.9 416
13:04:50 12 1008 211 0 SW 0 61.8 421
13:07:47 11 1007 211 0 S 0 61.9 419
13:10:47 11 1008 215 0 S 0 63.6 419
13:13:49 10 1007 217 0 SW 0 64.6 413
13:16:47 10 1007 231 0 W 0 67.5 412
13:19:49 10 1008 230 0 SW 0 68 410
13:22:48 10 1007 232 0 W 0 68.2 413
13:25:51 10 1008 225 0 SW 0 67.4 418
13:28:49 11 1007 225 0 NW 0 67.4 410
13:31:49 11 1008 233 0 NW 0 68.1 413
13:34:48 11 1007 227 0 N 0 67.6 407
13:37:48 11 1007 232 0 W 0 66.6 410
13:40:49 11 1007 223 0 SW 0 65.8 401
13:43:48 11 1007 232 0 S 0 64.5 404
13:46:49 11 1007 233 0 SO 0 64.9 407
13:49:47 12 1008 232 0 O 0 62.9 413
13:52:47 12 1007 232 0 S 0 59.2 409
13:55:49 11 1008 235 0 SO 0 59.7 407
13:58:50 12 1007 232 0 SO 0 63.1 410
14:01:49 12 1006 229 0 S 0 58.9 409
14:04:50 12 1008 239 0 NW 0 60.6 410
14:07:50 12 1007 242 0 W 0 60.3 404
14:10:47 13 1007 244 0 S 0 59.6 410
14:13:48 13 1006 243 0 S 0 58.6 404
14:16:46 13 1007 222 0 SW 0 55.7 407
14:19:49 12 1007 219 0 SO 0 56.5 416
14:22:47 11 1006 229 0 SO 0 57.1 415
14:25:47 11 1007 228 0 N 0 61.2 410
14:28:49 12 1007 245 0 NO 0 61.7 410
14:31:46 12 1007 245 0 O 0 60.9 407
14:34:51 12 1007 245 0 SW 0 58.6 407
14:37:48 12 1006 242 0 SW 0 57.9 413
14:40:48 12 1007 230 0 SW 0 56.5 415
14:43:50 12 1007 229 0 W 0 59.6 418
14:46:46 12 1007 225 0 W 0 59.5 410
14:49:49 11 1007 218 0 SW 0 59.6 407
14:52:51 11 1007 227 0 NO 0 59.7 410
14:55:49 11 1007 245 0 S 0 61.5 417
14:58:49 11 1007 228 0 W 0 62.2 418
15:01:49 11 1006 246 0 W 0 61.7 421
15:04:50 11 1007 246 0 NW 0 62.1 424
15:07:48 12 1007 246 0 W 0 61.8 427
15:10:50 12 1006 246 0 S 0 58.2 421
15:13:46 12 1006 246 0 S 0 57.7 424
15:16:46 12 1007 246 0 W 0 57.1 425
15:19:49 12 1006 228 0 SW 0 56.8 424
15:22:48 11 1006 233 0 NO 0 57.9 416
15:25:47 11 1007 242 0 S 0 58.3 418
15:28:50 11 1006 241 0 SW 0 59.5 422
15:31:47 11 1006 232 0 W 0 60.5 418
15:34:49 11 1007 230 0 SO 0 59.9 416
15:37:50 11 1006 235 0 N 0 59 410
15:40:48 11 1006 229 0 SW 0 59.4 413
15:43:47 11 1007 231 0 W 0 59.4 413
15:46:48 10 1006 222 0 N 0 60.6 413
15:49:51 10 1006 228 0 SW 0 58.7 415
15:52:48 10 1007 227 0 SO 0 58.6 412
15:55:49 10 1006 223 0 NW 0 59.2 413
15:58:50 10 1006 224 0 NW 0 60.5 415
16:01:48 10 1006 215 0 O 0 60.5 415
16:04:47 10 1006 216 0 SW 0 60.8 416
16:07:47 10 1006 217 0 NW 0 60.4 417
16:10:50 10 1006 212 0 O 0 60.8 419
16:13:50 9 1006 215 0 SO 0 60.7 419
16:16:49 9 1006 217 0 W 0 60.8 413
16:19:48 9 1006 212 0 W 0 61.2 415
16:22:46 9 1006 216 0 W 0 61.1 403
16:25:47 9 1006 218 0 O 0 61.5 404
16:28:46 9 1006 214 0 O 0 61.9 422
16:31:49 9 1006 210 0 NW 0 61.8 416
16:34:50 9 1006 210 0 SW 0 60.9 410
16:37:47 9 1006 219 0 SW 0 61.1 407
16:40:49 9 1006 215 0 NW 0 62.1 407
16:43:48 9 1006 211 0 SW 0 63.1 406
16:46:48 9 1006 216 0 SO 0 63.4 409
16:49:49 9 1006 206 0 SO 0 63.2 404
16:52:48 9 1006 200 0 S 0 63.4 410
16:55:46 9 1006 199 0 W 0 63.5 409
16:58:50 9 1006 197 0 NW 0 63.5 415
17:01:49 8 1006 195 0 SW 0 63.8 410
17:04:47 8 1006 193 0 SO 0 64.3 410
17:07:46 8 1006 191 0 O 0 64.2 404
17:10:49 8 1006 188 0 SO 0 64.4 407
17:13:47 8 1006 186 0 S 0 65.2 412
17:16:50 8 1006 183 0 NW 0 65.7 430
17:19:46 8 1006 179 0 S 0 65.9 451
17:22:47 8 1006 175 0 S 0 66.5 457
17:25:49 8 1006 170 0 S 0 67.2 466
17:28:49 8 1006 164 0 S 0 68.1 470
17:31:47 7 1006 155 0 SO 0 68.5 487
17:34:49 7 1006 149 0 SO 0 69.2 497
17:37:46 7 1006 140 0 S 0 69.6 509
17:40:49 7 1006 129 0 SW 0 70.1 524
17:43:46 7 1006 117 0 S 0 70.6 544
17:46:48 7 1006 105 0 SW 0 71.1 552
17:49:46 7 1006 92 0 S 0 71.6 559
17:52:46 6 1006 78 0 O 0 71.8 562
17:55:47 6 1006 63 0 S 0 71.9 559
17:58:47 6 1006 50 0 S 0 72 562
18:01:46 6 1006 37 0 SW 0 72 562
18:04:47 6 1006 25 0 S 0 71.9 568
18:07:49 6 1006 16 0 SO 0 72 565
18:10:47 6 1006 10 0 S 0 72 571
18:13:48 6 1006 6 0 S 0 72.6 583
18:16:48 6 1006 4 0 SO 0 72.8 588
18:19:48 5 1006 0 0 SO 0 73.4 595
18:22:46 5 1006 0 0 S 0 74.1 605
18:25:45 5 1006 0 0 S 0 74.4 614
18:28:46 5 1006 0 0 SO 0 74.5 609
18:31:45 5 1006 0 0 S 0 74.5 606
18:34:46 5 1006 0 0 S 0 74.5 605
18:37:49 5 1006 0 0 SO 0 74.6 612
18:40:47 5 1006 0 0 SW 0 74.7 615
18:43:48 5 1006 0 0 S 0 75.2 626
18:46:48 5 1006 0 0 SO 0 75.3 630
18:49:46 5 1006 0 0 O 0 75.2 629
18:52:46 5 1006 0 0 S 0 75.1 629
18:55:48 5 1006 0 0 SO 0 74.8 636
18:58:46 5 1006 0 0 SO 0 74.6 647
19:01:47 5 1006 0 0 S 0 74.8 653
19:04:46 5 1006 0 0 SO 0 75 659
19:07:47 5 1006 0 0 SO 0 75 659
19:10:47 5 1006 0 0 SO 0 75.5 673
19:13:46 4 1006 0 0 SO 0 75.7 670
19:16:49 4 1006 0 0 SO 0 76.3 676
19:19:47 4 1006 0 0 O 0 76.4 669
19:22:49 4 1006 0 0 SO 0 76.8 670
19:25:49 4 1005 0 0 SO 0 77.2 676
19:28:46 4 1005 0 0 SO 0 77.7 676
19:31:47 4 1006 0 0 SO 0 78.1 677
19:34:47 4 1006 0 0 SO 0 78.6 691
19:37:48 4 1005 0 0 SW 0 78.9 686
19:40:47 4 1006 0 0 S 0 79.2 691
19:43:48 4 1006 0 0 SO 0 79.5 697
19:46:45 4 1005 0 0 SO 0 79.4 717
19:49:47 4 1005 0 0 SO 0 79.1 725
19:52:46 4 1006 0 0 SO 0 79.1 725
19:55:45 4 1005 0 0 SW 0 78.9 731
19:58:48 4 1005 0 0 SO 0 78.7 729
20:01:48 4 1005 0 0 SW 0 78.8 724
20:04:46 4 1005 0 0 SO 0 79.1 726
20:07:49 4 1005 0 0 SO 0 78.9 730
20:10:48 4 1005 0 0 SO 0 78.9 732
20:13:45 4 1005 0 0 SO 0 79 737
20:16:47 4 1005 0 0 SO 0 79 741
20:19:46 4 1005 0 0 O 0 78.9 743
20:22:47 4 1006 0 0 S 0 78.8 736
20:25:47 4 1005 12 0 S 0 78.7 618
20:28:49 4 1006 9 0 SO 0 78.5 430
20:31:45 4 1005 9 0 O 0 78.5 472
20:34:46 4 1005 9 0 O 0 78.7 560
20:37:46 4 1005 10 0 O 0 79.2 583
20:40:48 4 1006 13 0 S 0 79.7 622
20:43:48 4 1005 0 0 S 0 80.3 589
20:46:48 4 1005 0 0 SO 0 80.2 565
20:49:47 4 1005 0 0 SO 0 79.9 562
20:52:48 4 1005 0 0 SO 0 79.7 554
20:55:45 4 1005 0 0 S 0 79.7 542
20:58:49 3 1005 0 0 SW 0 80.1 538
21:01:45 3 1005 0 0 O 0 80.3 543
21:04:43 3 1005 0 0 S 0 81.1 536
21:07:47 4 1005 0 0 SO 0 82 531
21:10:47 4 1005 0 0 SO 0 81.5 526
21:13:47 4 1004 0 0 S 0 81.5 521
21:16:47 4 1005 0 0 S 0 81.8 521
21:19:46 4 1004 0 0 SO 0 81.3 523
21:22:47 4 1004 0 0 S 0 80.7 518
21:25:47 4 1005 0 0 SW 0 80.6 515
21:28:46 4 1005 0 0 SO 0 80.7 521
21:31:46 4 1004 4 0 SO 0 80.7 509
21:34:48 4 1004 0 0 SO 0 80.3 506
21:37:47 4 1004 0 0 S 0 80.1 501
21:40:46 4 1004 0 0 SO 0 80 513
21:43:48 4 1004 0 0 S 0 81.1 512
21:46:46 4 1004 0 0 SO 0 81.7 500
21:49:47 4 1004 0 0 SO 0 83.2 503
21:52:45 4 1005 0 0 SW 0 84.6 495
21:55:46 5 1004 0 0 S 0 81.1 497
21:58:47 5 1004 0 0 SW 0 80.4 500
22:01:47 5 1004 0 0 S 0 79.3 509
22:04:49 5 1004 0 0 SO 0 78.9 515
22:07:46 5 1004 0 0 SO 0 78.7 515
22:10:48 5 1004 0 0 NO 0 78.1 511
22:13:49 5 1004 3 0 SO 0 77.5 508
22:16:45 5 1004 0 0 S 0 77.5 509
22:19:45 5 1004 0 0 S 0 77.1 497
22:22:49 5 1005 0 0 SW 0 75.9 501
22:25:48 5 1004 0 0 SO 0 74.9 495
22:28:47 5 1004 0 0 SW 0 74.9 497
22:31:46 5 1004 0 0 SO 0 75.3 495
22:34:47 5 1005 0 0 SO 0 75.9 494
22:37:46 4 1004 0 0 S 0 76.7 489
22:40:47 4 1005 0 0 SW 0 77.3 485
22:43:47 4 1004 0 0 SO 0 77.9 483
22:46:48 4 1003 0 0 SO 0 78.2 483
22:49:49 4 1004 0 0 SO 0 78.2 483
22:52:47 4 1004 0 0 SO 0 78.7 480
22:55:49 4 1004 0 0 SO 0 79.6 489
22:58:46 4 1004 0 0 SO 0 79.6 474
23:01:46 4 1004 0 0 SO 0 79.5 456
23:04:44 4 1003 0 0 S 0 79.1 460
23:07:47 4 1004 0 0 SO 0 79.1 487
23:10:48 4 1004 0 0 SO 0 79.1 502
23:13:46 4 1004 0 0 SO 0 79.2 503
23:16:46 4 1004 0 0 SO 0 79.4 516
23:19:46 4 1004 0 0 SO 0 79.8 521
23:22:48 3 1003 0 0 S 0 80.3 524
23:25:46 3 1004 0 0 SO 0 80.6 518
23:28:45 3 1003 0 0 S 0 81 524
23:31:46 3 1004 0 0 SO 0 81.3 528
23:34:46 3 1003 0 0 O 0 81.6 539
23:37:50 3 1003 0 0 SW 0 82.3 544
23:40:46 4 1004 0 0 S 0 83.1 550
23:43:47 4 1004 0 0 SO 0 82.4 547
23:46:45 4 1003 0 0 S 0 81 544
23:49:45 5 1003 0 0 S 0 79.4 542
23:52:46 5 1003 0 0 NO 0 77.9 548
23:55:45 5 1003 0 0 SO 0 76.6 551
23:58:46 5 1003 0 0 S 0 76 550

Letzte Änderung : 22-Jul-2022
Copyright Jens Köhler, Wolfsburg, Obere Dorfstraße 10d